Location: Newark
(7.1028°S, 35.3258°W)
Time: 14:27:11
(UTC+00:00)

Vanguard 3 - Pass Details

Date: 25 February 2020
Orbit: 508 x 3263 km, 33.4° (Epoch: 06 April)

Event Time Altitude Azimuth Distance (km) Brightness Sun altitude
Rises 01:12:57 0° 242° (WSW) 6,999 12.3 -63.9°
Reaches altitude 10° 01:20:21 10° 227° (SW) 5,590 11.6 -65.3°
Enters shadow 01:29:52 19° 191° (S) 4,128 10.8 -67.0°
